This is the latest recevied weather packets stored in our database for station/object WX9WTF. If no packets are shown the sender has not sent any weather packets the latest 10 day(s).
| Time | Temp. | Humidity | Pressure | Rain* | Wind** | Luminosity | Snow |
|---|---|---|---|---|---|---|---|
| 1778169211 | 16.11° C | 59% | 1017.3 hPa | 0 mm | - | 202 W/m² | - |
| 1778168908 | 16.67° C | 58% | 1017.5 hPa | 0 mm | - | 739 W/m² | - |
| 1778168605 | 16.67° C | 60% | 1017.5 hPa | 0 mm | - | 724 W/m² | - |
| 1778168302 | 16.67° C | 60% | 1017.4 hPa | 0 mm | - | 706 W/m² | - |
| 1778167998 | 16.67° C | 60% | 1017.6 hPa | 0 mm | - | 693 W/m² | - |
| 1778167695 | 16.67° C | 64% | 1017.5 hPa | 0 mm | - | 678 W/m² | - |
| 1778167391 | 16.11° C | 64% | 1017.6 hPa | 0 mm | - | 666 W/m² | - |
| 1778167087 | 15.56° C | 64% | 1017.8 hPa | 0 mm | - | 658 W/m² | - |
| 1778166783 | 16.11° C | 67% | 1017.9 hPa | 0 mm | - | 647 W/m² | - |
| 1778166480 | 15.56° C | 64% | 1017.8 hPa | 0 mm | - | 634 W/m² | - |
| 1778166177 | 15.56° C | 64% | 1017.8 hPa | 0 mm | - | 619 W/m² | - |
| 1778165873 | 15.56° C | 65% | 1017.7 hPa | 0 mm | - | 610 W/m² | - |
| 1778165570 | 15.56° C | 66% | 1017.9 hPa | 0 mm | - | 596 W/m² | - |
| 1778165267 | 15° C | 71% | 1017.9 hPa | 0 mm | - | 580 W/m² | - |
| 1778164964 | 15° C | 65% | 1018.1 hPa | 0 mm | - | 565 W/m² | - |
| 1778164661 | 15° C | 68% | 1017.9 hPa | 0 mm | - | 550 W/m² | - |
| 1778164358 | 15.56° C | 68% | 1017.8 hPa | 0 mm | - | 534 W/m² | - |
| 1778164054 | 15° C | 68% | 1017.9 hPa | 0 mm | - | 519 W/m² | - |
| 1778163751 | 15° C | 70% | 1017.9 hPa | 0 mm | - | 507 W/m² | - |
| 1778163447 | 14.44° C | 69% | 1018.2 hPa | 0 mm | - | 492 W/m² | - |
| 1778163144 | 13.89° C | 71% | 1018.2 hPa | 0 mm | - | 476 W/m² | - |
| 1778162840 | 15° C | 69% | 1018.1 hPa | 0 mm | - | 458 W/m² | - |
| 1778162538 | 14.44° C | 69% | 1018.1 hPa | 0 mm | - | 441 W/m² | - |
| 1778162235 | 14.44° C | 68% | 1018.2 hPa | 0 mm | - | 422 W/m² | - |
| 1778161932 | 13.89° C | 71% | 1018.1 hPa | 0 mm | - | 403 W/m² | - |
* Rain latest hour (hover to see other rain measurements)
** Current wind speed in m/s (hover to see current wind gust speed)